Weather History for Sharm El Sheikh, Egypt

Change the Weather History Date:

Wednesday, October 17, 2012

  Actual Average Record
Temperature  
Mean Temperature 89 °F -  
Max Temperature 100 °F - - ()
Min Temperature 78 °F - - ()
Cooling Degree Days 24    
Growing Degree Days 39 (Base 50)    
Moisture  
Dew Point 53 °F    
Average Humidity 31    
Maximum Humidity 48    
Minimum Humidity 21    
Precipitation  
Precipitation 0.00 in - - ()
Sea Level Pressure  
Sea Level Pressure 29.88 in    
Wind  
Wind Speed 6 mph ()    
Max Wind Speed 15 mph    
Max Gust Speed -    
T = Trace of Precipitation, MM = Missing Value Source: Averaged Metar Reports

Daily Weather History Graph

Daily Weather History Graph

Search for Another Location

Airport:

Trip Planner

Search our weather history database for the weather conditions in past years. The results will help you decide how hot, cold, wet, or windy it might be!

Date:

Astronomy

Oct. 17, 2012 Rise Set
Actual Time 5:44 AM EET 5:10 PM EET
Civil Twilight 5:20 AM EET 5:34 PM EET
Nautical Twilight 4:53 AM EET 6:01 PM EET
Astronomical Twilight 4:25 AM EET 6:29 PM EET
Moon 7:40 AM EET (10/17) 6:43 PM EET (10/17)
Length of Visible Light 12h 14m
Length of Day
11h 26m
Waxing Crescent, 5% of the Moon is Illuminated
Oct 17
Waxing Crescent
Oct 22
First Quarter
Oct 29
Full
Nov 7
Last Quarter
Nov 14
New

Hourly Weather History & Observations

Time (EET) Temp. Heat Index Dew Point Humidity Pressure Visibility Wind Dir Wind Speed Gust Speed Precip Events Conditions
12:00 AM 82.4 °F - 44.6 °F 26% 29.92 in - NE 4.6 mph - N/A   Clear
1:00 AM 80.6 °F 80.3 °F 53.6 °F 39% 29.92 in - North 6.9 mph - N/A   Clear
2:00 AM 80.6 °F 81.1 °F 59.0 °F 48% 29.89 in - North 4.6 mph - N/A   Clear
3:00 AM 78.8 °F - 50.0 °F 36% 29.89 in - North 5.8 mph - N/A   Clear
4:00 AM 80.6 °F - 48.2 °F 32% 29.89 in - North 6.9 mph - N/A   Clear
5:00 AM 78.8 °F - 50.0 °F 36% 29.89 in - NNW 4.6 mph - N/A   Clear
6:00 AM 78.8 °F - 57.2 °F 47% 29.89 in - North 4.6 mph - N/A   Clear
7:00 AM 86.0 °F 84.9 °F 57.2 °F 37% 29.92 in - NNE 15.0 mph - N/A   Clear
8:00 AM 87.8 °F 87.1 °F 59.0 °F 38% 29.92 in - North 11.5 mph - N/A   Clear
9:00 AM 91.4 °F 89.4 °F 55.4 °F 29% 29.92 in - NNE 10.4 mph - N/A   Clear
10:00 AM 95.0 °F 93.7 °F 57.2 °F 28% 29.92 in - North 13.8 mph - N/A   Clear
11:00 AM 96.8 °F 95.8 °F 57.2 °F 27% 29.89 in - NNE 11.5 mph - N/A   Clear
12:00 PM 96.8 °F 94.4 °F 53.6 °F 23% 29.89 in - NNE 10.4 mph - N/A   Clear
1:00 PM 100.4 °F 98.4 °F 53.6 °F 21% 29.86 in - NNE 11.5 mph - N/A   Clear
2:00 PM 100.4 °F 98.4 °F 53.6 °F 21% 29.86 in - NNE 8.1 mph - N/A   Clear
3:00 PM 98.6 °F - 51.8 °F 21% 29.83 in - NNE 5.8 mph - N/A   Clear
4:00 PM 95.0 °F - 51.8 °F 23% 29.83 in - NNE 5.8 mph - N/A   Clear
5:00 PM 89.6 °F - 51.8 °F 27% 29.83 in - NNE 5.8 mph - N/A   Clear
6:00 PM 87.8 °F - 51.8 °F 29% 29.83 in - Variable 3.5 mph - N/A   Clear
7:00 PM 86.0 °F - 50.0 °F 29% 29.83 in - NNW 4.6 mph - N/A   Clear
8:00 PM 86.0 °F - 50.0 °F 29% 29.86 in - North 8.1 mph - N/A   Clear
9:00 PM 86.0 °F 84.2 °F 53.6 °F 33% 29.86 in - North 9.2 mph - N/A   Clear
10:00 PM 82.4 °F - 51.8 °F 35% 29.86 in - North 5.8 mph - N/A   Clear
11:00 PM 82.4 °F - 51.8 °F 35% 29.86 in - North 5.8 mph - N/A   Clear